Simultaneous Nadir Overpasses (SNOs) Predictions

Prediction of SNOs between AQUA and METOP-A Satellite Orbit:

Table of predicted SNOs for the next 14.0 days since TLE Epoch: 4/27/2018
Index Date (AQUA) Time (AQUA) Lat,Lon (AQUA) SZA (AQUA ) Date (METOP-A) Time (METOP-A) Lat,Lon (METOP-A) SZA (METOP-A ) Distance(km) Time Diff (sec)
1 04/28/2018 16:08:45 -74.29, 111.22 119.99 04/28/2018 16:07:45 -74.30, 111.22 119.97 0.52 60
2 04/28/2018 16:58:14 74.35, -81.29 60.07 04/28/2018 16:58:23 74.37, -81.27 60.09 1.58 9
3 04/28/2018 17:47:48 -74.80, 85.26 119.46 04/28/2018 17:48:56 -74.81, 87.21 119.52 57.06 68
4 05/01/2018 11:42:58 -74.33, 177.59 120.82 05/01/2018 11:42:03 -74.30, 177.62 120.84 3.45 55
5 05/01/2018 12:32:27 74.39, -14.92 59.24 05/01/2018 12:32:41 74.36, -14.87 59.22 3.06 14
6 05/01/2018 13:22:04 -74.99, 151.23 120.12 05/01/2018 13:23:10 -75.00, 154.15 120.21 84.24 66
7 05/04/2018 07:17:10 -74.32,-115.94 121.66 05/04/2018 07:16:21 -74.29,-115.98 121.67 2.78 49
8 05/04/2018 08:06:39 74.38, 51.55 58.40 05/04/2018 08:06:59 74.36, 51.52 58.38 2.09 20
9 05/07/2018 02:51:21 -74.31, -49.48 122.46 05/07/2018 02:50:37 -74.34, -49.47 122.43 2.89 44
10 05/07/2018 03:40:50 74.38, 118.00 57.60 05/07/2018 03:41:15 74.40, 118.04 57.62 3.28 25
11 05/09/2018 22:25:33 -74.31, 16.96 123.22 05/09/2018 22:24:55 -74.33, 16.92 123.20 2.05 38
12 05/09/2018 23:15:02 74.38,-175.56 56.84 05/09/2018 23:15:33 74.39,-175.58 56.86 1.75 31




NCC Satellite Simultaneous Nadir Overpasses (SNOs) Prediction Service
